Knoxville, TN

3:35 PM EDT on May 26, 2017 (GMT -0400)
McGhee Tyson

Weather History for KTYS - November, 2013

Change the Weather History Date:

Tuesday, November 5, 2013

  Actual Average Record
Temperature  
Mean Temperature 57 °F 53 °F  
Max Temperature 68 °F 65 °F 84 °F (1948)
Min Temperature 45 °F 42 °F 21 °F (1991)
Degree Days  
Heating Degree Days 8 12  
Month to date heating degree days 46 57  
Since 1 July heating degree days 201 276  
Cooling Degree Days 0 0  
Month to date cooling degree days 0 0  
Year to date cooling degree days 1445 1523  
Growing Degree Days 6 (Base 50)    
Moisture  
Dew Point 40 °F    
Average Humidity 62    
Maximum Humidity 89    
Minimum Humidity 35    
Precipitation  
Precipitation 0.00 in 0.11 in 1.15 in (1963)
Month to date precipitation 0.37 0.57  
Year to date precipitation 57.08 39.92  
Snow  
Snow 0.00 in 0.00 in - ()
Month to date snowfall 0.0 0.0  
Since 1 July snowfall 0.0 0.0  
Since 1 September snowfall 0.0 0.0  
Snow Depth 0.00 in    
Sea Level Pressure  
Sea Level Pressure 30.38 in    
Wind  
Wind Speed 2 mph (NE)    
Max Wind Speed 10 mph    
Max Gust Speed 13 mph    
Visibility 10 miles    
Events      
T = Trace of Precipitation, MM = Missing Value Source: NWS Daily Summary

Daily Weather History Graph

Daily Weather History Graph

Search for Another Location

Airport or City:

Trip Planner

Search our weather history database for the weather conditions in past years. The results will help you decide how hot, cold, wet, or windy it might be!

Date:

Astronomy

Nov. 05, 2013 Rise Set
Actual Time 7:02 AM EST 5:36 PM EST
Civil Twilight 6:35 AM EST 6:02 PM EST
Nautical Twilight 6:05 AM EST 6:33 PM EST
Astronomical Twilight 5:35 AM EST 7:03 PM EST
Moon 9:13 AM EST (11/5) 7:39 PM EST (11/5)
Length of Visible Light 11h 27m
Length of Day
10h 34m
Waxing Crescent, 6% of the Moon is Illuminated
Nov 5
Waxing Crescent
Nov 10
First Quarter
Nov 17
Full
Nov 25
Last Quarter
Dec 2
New

Hourly Weather History & Observations

Time (EST) Temp. Windchill Dew Point Humidity Pressure Visibility Wind Dir Wind Speed Gust Speed Precip Events Conditions
1:53 AM 50.0 °F - 42.1 °F 74% 30.40 in 10.0 mi Calm Calm - N/A   Overcast
2:53 AM 48.0 °F - 42.1 °F 80% 30.40 in 9.0 mi Calm Calm - N/A   Overcast
3:53 AM 48.9 °F - 42.1 °F 77% 30.41 in 10.0 mi Calm Calm - N/A   Overcast
4:53 AM 46.0 °F 44.8 °F 41.0 °F 83% 30.42 in 10.0 mi ENE 3.5 mph - N/A   Overcast
5:53 AM 45.0 °F 43.5 °F 41.0 °F 86% 30.43 in 10.0 mi ENE 3.5 mph - N/A   Overcast
6:53 AM 46.0 °F - 39.9 °F 79% 30.43 in 10.0 mi Calm Calm - N/A   Mostly Cloudy
7:53 AM 46.9 °F - 39.0 °F 74% 30.44 in 10.0 mi Calm Calm - N/A   Mostly Cloudy
8:53 AM 50.0 °F - 37.9 °F 63% 30.44 in 10.0 mi NNE 10.4 mph - N/A   Mostly Cloudy
9:53 AM 54.0 °F - 39.0 °F 57% 30.44 in 10.0 mi NE 3.5 mph - N/A   Mostly Cloudy
10:53 AM 57.0 °F - 37.9 °F 49% 30.44 in 10.0 mi Calm Calm - N/A   Scattered Clouds
11:53 AM 61.0 °F - 37.9 °F 42% 30.41 in 9.0 mi Calm Calm - N/A   Scattered Clouds
12:53 PM 63.0 °F - 39.0 °F 41% 30.39 in 10.0 mi Variable 3.5 mph - N/A   Mostly Cloudy
1:53 PM 66.0 °F - 39.0 °F 37% 30.37 in 10.0 mi Calm Calm - N/A   Mostly Cloudy
2:53 PM 68.0 °F - 39.9 °F 36% 30.35 in 10.0 mi Calm Calm - N/A   Scattered Clouds
3:53 PM 66.9 °F - 39.0 °F 36% 30.33 in 10.0 mi Calm Calm - N/A   Scattered Clouds
4:53 PM 66.0 °F - 39.9 °F 38% 30.32 in 10.0 mi NNE 3.5 mph - N/A   Scattered Clouds
5:53 PM 61.0 °F - 39.9 °F 46% 30.32 in 10.0 mi NNE 3.5 mph - N/A   Scattered Clouds
6:53 PM 60.1 °F - 41.0 °F 49% 30.32 in 10.0 mi NE 3.5 mph - N/A   Scattered Clouds
8:53 PM 55.9 °F - 41.0 °F 57% 30.32 in 10.0 mi Calm Calm - N/A   Scattered Clouds
10:53 PM 53.1 °F - 39.9 °F 61% 30.32 in 10.0 mi NE 4.6 mph - N/A   Mostly Cloudy
11:53 PM 51.1 °F - 42.1 °F 71% 30.32 in 10.0 mi WNW 5.8 mph - N/A   Mostly Cloudy